Location: Boston
(42.3580°N, 71.0600°W)
Time: 02:40:00
(UTC-04:00)

N. Korean satellite - Pass Details

Date: 16 October 2017
Orbit: 459 x 517 km, 97.2° (Epoch: 21 October)

Event Time Altitude Azimuth Distance (km) Brightness Sun altitude
Rises 18:36:04 0° 162° (SSE) 2,538 10.1 -7.4°
Reaches altitude 10° 18:38:09 10° 160° (SSE) 1,653 9.1 -7.8°
Maximum altitude 18:41:41 70° 76° (ENE) 511 6.4 -8.4°
Drops below altitude 10° 18:45:10 10° 353° (N) 1,638 9.3 -9.0°
Sets 18:47:13 0° 351° (N) 2,512 10.3 -9.4°
